Minneapolis Flying Cloud, MN

12:46 PM CDT on July 22, 2017 (GMT -0500)
Flying Cloud

Weather History for KFCM - February, 2014

Change the Weather History Date:

Sunday, February 2, 2014

  Actual Average Record
Temperature  
Mean Temperature 0 °F -  
Max Temperature 10 °F 25 °F 42 °F (2005)
Min Temperature -11 °F 9 °F -17 °F (2001)
Degree Days  
Heating Degree Days 66    
Moisture  
Dew Point -6 °F    
Average Humidity 76    
Maximum Humidity 91    
Minimum Humidity 61    
Precipitation  
Precipitation 0.00 in - - ()
Sea Level Pressure  
Sea Level Pressure 30.31 in    
Wind  
Wind Speed 5 mph (SSW)    
Max Wind Speed 10 mph    
Max Gust Speed -    
Visibility 10 miles    
Events      
Averages and records for this station are not official NWS values.
T = Trace of Precipitation, MM = Missing Value Source: NWS Daily Summary

Daily Weather History Graph

Daily Weather History Graph

Search for Another Location

Airport or City:

Trip Planner

Search our weather history database for the weather conditions in past years. The results will help you decide how hot, cold, wet, or windy it might be!

Date:

Astronomy

Feb. 02, 2014 Rise Set
Actual Time 7:31 AM CST 5:23 PM CST
Civil Twilight 7:00 AM CST 5:54 PM CST
Nautical Twilight 6:25 AM CST 6:29 PM CST
Astronomical Twilight 5:51 AM CST 7:04 PM CST
Moon 8:48 AM CST (2/2) 9:20 PM CST (2/2)
Length of Visible Light 10h 53m
Length of Day
9h 51m
Waxing Crescent, 11% of the Moon is Illuminated
Feb 2
Waxing Crescent
Feb 6
First Quarter
Feb 14
Full
Feb 22
Last Quarter
Mar 1
New

Hourly Weather History & Observations

Time (CST) Temp. Windchill Dew Point Humidity Pressure Visibility Wind Dir Wind Speed Gust Speed Precip Events Conditions
12:53 AM -2.0 °F -13.9 °F -9.0 °F 72% 30.29 in 10.0 mi WNW 5.8 mph - N/A   Clear
1:53 AM -4.0 °F -12.4 °F -9.0 °F 79% 30.29 in 10.0 mi West 3.5 mph - N/A   Clear
2:53 AM -5.1 °F - -9.9 °F 80% 30.30 in 10.0 mi Calm Calm - N/A   Clear
3:53 AM -7.1 °F -18.1 °F -11.0 °F 83% 30.30 in 10.0 mi West 4.6 mph - N/A   Clear
4:53 AM -7.1 °F -15.9 °F -11.9 °F 79% 30.32 in 10.0 mi WSW 3.5 mph - N/A   Clear
5:53 AM -9.0 °F -20.4 °F -13.0 °F 83% 30.33 in 10.0 mi SW 4.6 mph - N/A   Clear
6:53 AM -9.9 °F - -16.1 °F 74% 30.34 in 10.0 mi Calm Calm - N/A   Clear
7:53 AM -11.0 °F -22.8 °F -13.0 °F 91% 30.36 in 10.0 mi SSW 4.6 mph - N/A   Clear
8:53 AM -8.0 °F -21.0 °F -11.9 °F 83% 30.37 in 10.0 mi SW 5.8 mph - N/A   Clear
9:53 AM -5.1 °F - -8.0 °F 87% 30.36 in 10.0 mi Calm Calm - N/A   Clear
10:53 AM -0.9 °F -14.1 °F -6.0 °F 79% 30.37 in 10.0 mi South 6.9 mph - N/A   Clear
11:53 AM 3.9 °F -5.3 °F -2.9 °F 73% 30.34 in 10.0 mi South 4.6 mph - N/A   Clear
12:53 PM 7.0 °F -5.7 °F -0.9 °F 70% 30.33 in 10.0 mi South 8.1 mph - N/A   Clear
1:53 PM 9.0 °F -3.2 °F -0.0 °F 67% 30.31 in 10.0 mi South 8.1 mph - N/A   Clear
2:53 PM 10.9 °F -1.8 °F -0.0 °F 61% 30.32 in 10.0 mi SSW 9.2 mph - N/A   Clear
3:53 PM 10.9 °F -2.6 °F -0.0 °F 61% 30.32 in 10.0 mi SSW 10.4 mph - N/A   Clear
4:53 PM 10.0 °F -2.9 °F -0.9 °F 61% 30.30 in 10.0 mi South 9.2 mph - N/A   Clear
5:53 PM 7.0 °F 0.1 °F -0.9 °F 70% 30.30 in 10.0 mi South 3.5 mph - N/A   Clear
6:53 PM 6.1 °F -2.8 °F -2.0 °F 69% 30.29 in 10.0 mi South 4.6 mph - N/A   Clear
7:53 PM 3.9 °F -5.3 °F -2.0 °F 76% 30.29 in 10.0 mi South 4.6 mph - N/A   Clear
8:53 PM 3.0 °F -6.4 °F -2.9 °F 76% 30.28 in 10.0 mi South 4.6 mph - N/A   Clear
9:53 PM 1.9 °F -10.6 °F -2.0 °F 83% 30.27 in 10.0 mi SSW 6.9 mph - N/A   Clear
10:53 PM 1.9 °F -9.2 °F -2.9 °F 80% 30.26 in 10.0 mi SSW 5.8 mph - N/A   Clear
11:53 PM 3.9 °F -8.2 °F -2.0 °F 76% 30.25 in 10.0 mi South 6.9 mph - N/A   Clear